CMS-02 (GSAT 24) (52903 NORAD) Tracking and Keplerian Element Data

This shows tracking and keplerian element data for the satellite.

Feedback or suggestion? Click here.




ElementValue
Catalog52903
NameCMS-02 (GSAT 24)
Epoch Orbit77
Epoch Day248.12202326
Epoch Year2022
RAAN277.1516
Inclination0.0731
Eccentricity0.0006429
Argument of Perigee189.2371
Mean Anonmoly15.2626
Mean Motion1.00271923
Decay Rate-2.67E-06
L11 52903U 22067A 22248.12202326 -.00000267 00000+0 00000+0 0 9996
L22 52903 0.0731 277.1516 0006429 189.2371 15.2626 1.00271923 774

Live tracking and technical data element details for CMS-02 (GSAT 24) (NORAD 52903). CMS-02 (GSAT 24) can be tracked NOW for your location showing map with azimuth and elevation plus other details from your city location.

Track the satellite on the map from your city or location and see movement details for azimuth, elevation, latitude, longitude, range, height, and movement on the map or in text.







IsCatalogInMostPopularTable: catalog: 52903, numindb: 13
Update: records affected: 1



GetName: 52903 CMS-02 (GSAT 24)

Hit Count: updated at: Sun, 25 Sep 2022 09:17:02 GMT